Blythe, CA

7:17 PM PST on December 14, 2017 (GMT -0800)
Blythe

Weather History for KBLH - December, 2011

Change the Weather History Date:

Tuesday, December 6, 2011

  Actual Average Record
Temperature  
Mean Temperature 49 °F -  
Max Temperature 57 °F 66 °F 79 °F (1989)
Min Temperature 36 °F 42 °F 32 °F (1972)
Degree Days  
Heating Degree Days 16    
Moisture  
Dew Point 6 °F    
Average Humidity 19    
Maximum Humidity 27    
Minimum Humidity 13    
Precipitation  
Precipitation 0.00 in - - ()
Sea Level Pressure  
Sea Level Pressure 30.37 in    
Wind  
Wind Speed 8 mph (NNW)    
Max Wind Speed 15 mph    
Max Gust Speed -    
Visibility 10 miles    
Events      
Averages and records for this station are not official NWS values.
T = Trace of Precipitation, MM = Missing Value Source: NWS Daily Summary

Daily Weather History Graph

Daily Weather History Graph

Search for Another Location

Airport or City:

Trip Planner

Search our weather history database for the weather conditions in past years. The results will help you decide how hot, cold, wet, or windy it might be!

Date:

Astronomy

Dec. 06, 2011 Rise Set
Actual Time 6:29 AM PST 4:30 PM PST
Civil Twilight 6:01 AM PST 4:57 PM PST
Nautical Twilight 5:30 AM PST 5:28 PM PST
Astronomical Twilight 5:00 AM PST 5:58 PM PST
Moon 1:55 PM PST (12/6) 2:57 AM PST (12/6)
Length of Visible Light 10h 55m
Length of Day
10h 01m
Waxing Gibbous, 87% of the Moon is Illuminated
Dec 6
Waxing Gibbous
Dec 10
Full
Dec 17
Last Quarter
Dec 24
New
Dec 31
First Quarter

Hourly Weather History & Observations

Time (PST) Temp. Windchill Dew Point Humidity Pressure Visibility Wind Dir Wind Speed Gust Speed Precip Events Conditions
12:52 AM 44.1 °F 39.0 °F 9.0 °F 24% 30.35 in 10.0 mi NNW 9.2 mph - N/A   Clear
1:52 AM 44.1 °F 39.5 °F 8.1 °F 23% 30.36 in 10.0 mi NW 8.1 mph - N/A   Clear
2:52 AM 42.1 °F 36.1 °F 8.1 °F 25% 30.36 in 10.0 mi North 10.4 mph - N/A   Clear
3:52 AM 41.0 °F 35.2 °F 7.0 °F 25% 30.36 in 10.0 mi NNW 9.2 mph - N/A   Clear
4:52 AM 42.1 °F 36.1 °F 5.0 °F 22% 30.37 in 10.0 mi NNW 10.4 mph - N/A   Clear
5:52 AM 42.1 °F 34.5 °F 5.0 °F 22% 30.38 in 10.0 mi NNW 15.0 mph - N/A   Clear
6:52 AM 42.1 °F 35.2 °F 3.9 °F 21% 30.40 in 10.0 mi North 12.7 mph - N/A   Clear
7:52 AM 46.0 °F 40.2 °F 3.9 °F 18% 30.42 in 10.0 mi North 12.7 mph - N/A   Clear
8:52 AM 48.9 °F - 5.0 °F 17% 30.44 in 10.0 mi NNW 13.8 mph - N/A   Clear
9:52 AM 50.0 °F - 9.0 °F 19% 30.45 in 10.0 mi East 4.6 mph - N/A   Clear
10:52 AM 53.1 °F - 8.1 °F 16% 30.43 in 10.0 mi Variable 3.5 mph - N/A   Clear
11:52 AM 55.0 °F - 8.1 °F 15% 30.40 in 10.0 mi NE 6.9 mph - N/A   Clear
12:52 PM 55.9 °F - 8.1 °F 15% 30.37 in 10.0 mi NE 6.9 mph - N/A   Clear
1:52 PM 55.9 °F - 8.1 °F 15% 30.35 in 10.0 mi ENE 3.5 mph - N/A   Clear
2:52 PM 57.0 °F - 7.0 °F 14% 30.34 in 10.0 mi Calm Calm - N/A   Clear
3:52 PM 55.9 °F - 5.0 °F 13% 30.34 in 10.0 mi NNW 4.6 mph - N/A   Clear
4:52 PM 51.1 °F - 3.0 °F 14% 30.34 in 10.0 mi NW 6.9 mph - N/A   Clear
5:52 PM 48.9 °F - 3.9 °F 16% 30.35 in 10.0 mi West 4.6 mph - N/A   Clear
6:52 PM 45.0 °F 41.8 °F 3.0 °F 18% 30.35 in 10.0 mi NNW 5.8 mph - N/A   Clear
7:52 PM 43.0 °F 38.8 °F 3.0 °F 19% 30.36 in 10.0 mi NNW 6.9 mph - N/A   Clear
8:52 PM 41.0 °F 38.0 °F 3.9 °F 21% 30.37 in 10.0 mi WNW 4.6 mph - N/A   Clear
9:52 PM 44.1 °F 42.5 °F 3.0 °F 18% 30.38 in 10.0 mi WNW 3.5 mph - N/A   Clear
10:52 PM 41.0 °F 38.0 °F 5.0 °F 23% 30.37 in 10.0 mi NNW 4.6 mph - N/A   Clear
11:52 PM 36.0 °F 29.6 °F 5.0 °F 27% 30.35 in 10.0 mi NNW 8.1 mph - N/A   Clear